GFSGL_250_spd_057.txt.gz
Wind_Speed
70 66 62 59 52 49 47 51 51 48 50 49 47 45 46 46 46 47 48 41 35 24 6 5 7 10 13 14 16 16 12 11 7 14 22 36 40 39 38 27 21 18 19
66 62 59 56 52 45 45 46 45 46 45 44 43 42 44 43 43 46 43 34 23 10 10 7 10 17 15 15 18 17 17 9 7 12 29 36 39 37 31 28 27 19 21
58 55 53 52 49 46 44 43 43 43 40 40 40 41 41 40 43 43 33 24 10 8 12 11 18 19 19 17 22 23 16 14 10 10 27 37 38 39 36 31 27 18 21
54 50 49 48 47 43 43 39 38 36 39 42 41 39 38 39 41 32 26 11 9 11 13 14 21 22 21 12 13 19 18 18 16 14 26 35 33 35 31 29 20 15 22
47 48 47 46 45 43 38 38 36 40 40 37 34 34 35 38 37 24 19 8 9 11 13 15 19 21 19 16 14 23 14 16 14 16 18 27 38 34 32 28 23 21 25
42 40 40 42 41 39 36 38 37 34 32 28 29 31 34 34 25 19 15 9 10 6 12 17 15 19 21 15 16 21 16 19 18 17 18 20 25 40 37 32 28 24 26
36 35 36 37 36 34 33 31 29 28 25 23 26 30 28 24 20 21 12 11 11 10 15 11 17 21 24 19 19 17 18 16 15 18 19 23 25 35 39 37 32 29 29
34 34 35 33 31 30 28 26 25 21 18 20 27 26 26 23 20 20 11 14 10 13 10 16 21 22 22 17 13 14 14 13 15 19 18 20 20 34 39 35 34 32 32
34 34 31 30 28 27 24 23 19 14 18 24 24 24 22 23 18 15 10 12 8 8 12 16 18 20 20 12 10 8 12 15 15 19 20 18 18 30 31 31 34 32 37
33 32 30 28 25 24 22 19 14 16 22 25 24 25 24 20 17 10 14 7 6 8 12 15 19 20 17 8 5 7 8 8 11 15 18 19 23 26 30 32 34 30 40
34 33 28 25 24 21 17 14 13 17 21 25 25 23 20 20 16 12 15 5 6 7 10 16 22 22 16 7 5 5 5 8 11 14 21 27 25 25 26 29 31 32 42
39 31 26 24 20 16 14 13 13 18 22 25 19 16 18 15 8 19 13 9 6 3 8 16 22 21 11 6 6 5 8 11 15 21 26 27 24 25 26 27 29 35 42
34 30 26 22 17 16 14 12 18 20 22 19 15 15 16 16 13 22 13 12 6 2 8 14 18 18 12 9 10 14 19 19 24 27 28 27 28 25 21 23 28 34 40
32 25 23 19 18 14 11 13 16 17 16 13 14 14 12 9 18 22 13 12 8 2 4 8 16 19 12 12 13 19 21 21 23 25 30 31 27 24 24 23 25 27 31
28 25 21 22 15 11 12 12 14 16 15 14 13 14 9 6 19 22 17 14 11 4 3 6 11 18 19 14 15 18 22 24 29 30 29 28 28 26 24 24 25 25 24
24 23 20 17 10 12 13 13 14 13 13 15 13 14 9 8 18 23 19 15 14 8 8 7 8 11 17 19 22 23 23 26 26 25 23 26 28 28 27 24 22 18 19
25 24 14 11 9 11 13 15 15 12 10 13 12 16 13 9 18 23 21 19 15 12 11 10 10 9 13 18 18 15 18 20 20 22 23 27 27 26 21 19 18 20 19
25 17 13 12 8 9 13 15 13 10 6 7 14 14 14 8 16 24 23 20 18 16 15 12 10 8 4 8 9 11 12 14 14 15 16 15 15 14 13 14 15 15 15
22 18 17 12 8 7 8 10 10 6 5 6 12 16 14 12 16 22 26 23 19 19 20 17 13 7 8 12 11 10 10 11 12 12 13 12 14 13 12 13 14 16 18
21 18 14 12 7 6 8 6 6 6 7 7 10 13 13 15 20 22 26 27 23 19 20 20 18 14 9 10 11 11 14 15 12 15 13 14 13 13 17 21 21 22 25
21 17 17 13 6 4 4 7 7 6 8 6 7 9 13 16 21 20 22 24 25 25 23 22 21 18 18 16 15 17 18 18 19 17 19 17 18 19 20 22 25 29 31
22 18 17 9 6 3 2 5 6 5 5 5 6 6 9 17 13 15 16 18 25 25 26 27 26 27 23 22 22 22 24 26 25 25 24 23 24 27 30 31 33 33 31
22 20 17 12 7 6 3 2 3 3 3 1 1 6 10 13 11 9 11 15 18 22 27 29 30 31 29 29 30 27 27 27 34 34 32 31 32 31 30 30 29 26 26
27 22 13 10 12 10 7 2 3 7 2 3 6 13 14 16 15 14 12 11 9 10 10 16 23 27 26 25 27 28 29 28 27 28 30 30 30 30 32 31 30 29 30
29 28 26 23 14 10 8 6 3 2 1 3 1 7 13 15 15 17 14 17 16 16 16 14 17 18 19 21 23 25 27 28 29 31 32 33 34 34 34 35 36 35 36
35 32 26 22 21 16 12 9 9 8 6 5 4 7 10 16 22 23 23 20 19 18 18 18 20 21 22 23 25 25 26 27 28 29 29 31 34 36 37 38 38 38 39

GFSGL_250_spd_060.txt.gz
Wind_Speed
82 79 75 71 65 61 61 61 56 56 53 52 51 50 50 52 48 45 49 46 49 49 44 30 15 17 15 17 15 14 19 16 16 15 6 23 36 35 33 30 24 15 11
80 78 74 69 63 61 62 61 59 56 54 51 49 48 49 45 44 46 46 44 47 43 33 19 17 18 14 18 18 11 15 17 15 9 9 17 32 35 34 30 22 17 12
71 71 70 66 61 61 60 59 56 52 50 49 48 46 46 43 43 45 42 43 44 38 22 15 16 19 23 22 18 14 13 12 15 9 9 14 30 33 33 30 25 26 18
59 59 61 59 58 57 55 52 48 46 49 50 46 43 41 41 42 41 40 42 36 28 18 15 18 19 23 21 21 17 17 16 13 14 12 19 25 32 32 32 26 21 19
43 45 49 50 52 52 50 47 42 41 42 45 42 40 42 40 39 37 38 37 31 20 14 15 15 19 19 20 22 24 20 16 13 14 16 16 27 29 31 30 24 21 20
34 32 35 39 44 45 44 43 40 43 45 43 41 43 38 36 34 34 35 33 28 15 11 13 14 16 19 22 25 24 19 22 16 15 16 16 25 29 31 31 27 27 17
22 28 30 34 39 38 39 36 41 43 44 44 40 35 34 31 30 32 32 32 19 13 13 11 13 18 22 26 28 27 21 20 18 18 20 20 23 31 34 31 32 25 19
19 25 27 30 31 35 36 39 39 37 36 33 32 32 28 27 28 28 32 25 14 13 10 11 16 20 23 27 27 23 21 18 17 20 20 24 25 29 30 34 32 27 23
24 28 25 27 28 32 33 33 30 29 30 30 31 29 23 25 28 30 23 16 12 9 8 13 16 21 26 27 22 19 18 18 18 21 25 28 27 24 26 29 34 31 27
34 28 26 26 26 28 29 28 26 28 28 30 27 23 22 26 27 24 22 13 9 6 8 13 17 24 27 23 18 15 14 16 19 21 20 24 24 25 28 31 33 30 28
38 34 34 24 25 26 25 24 25 26 27 23 20 21 24 24 21 20 17 11 9 4 7 13 20 24 17 12 12 11 11 12 15 19 25 25 19 17 21 28 30 32 31
38 33 27 20 23 23 22 23 24 25 21 19 20 23 23 20 18 17 14 10 7 2 6 15 20 20 16 10 7 4 4 8 12 18 22 21 19 20 20 23 26 28 29
33 29 22 23 21 22 23 23 23 21 18 18 20 20 19 17 16 12 19 12 7 2 6 13 19 18 13 7 2 6 9 11 13 19 25 24 22 24 23 24 28 29 32
35 30 27 22 22 24 23 22 21 17 17 18 18 16 16 14 14 18 19 13 7 3 5 10 16 17 12 6 9 16 19 18 20 24 24 22 19 18 19 20 21 23 30
33 26 22 22 24 22 22 20 17 12 17 18 17 15 13 12 11 24 17 14 9 5 2 6 14 15 15 11 12 18 19 21 25 28 30 29 27 23 21 21 21 23 26
26 23 20 22 21 22 19 18 14 16 19 18 15 14 13 8 14 26 18 15 12 8 4 5 12 14 19 18 16 19 24 26 27 27 26 28 27 28 25 24 23 22 22
24 21 20 20 18 16 18 17 16 18 19 19 13 14 12 10 14 24 19 18 16 10 8 8 9 11 14 17 18 16 15 20 22 22 23 23 21 26 26 26 25 24 21
20 19 18 19 14 12 12 13 18 20 18 16 13 14 12 13 16 25 24 21 16 14 11 10 7 6 7 9 13 15 17 16 16 19 20 18 18 18 17 15 13 13 13
23 18 17 18 14 11 11 12 14 14 11 12 12 15 16 16 16 25 26 21 20 18 14 11 10 5 7 6 4 4 5 7 10 11 14 14 13 11 10 9 10 12 15
18 19 18 19 11 11 11 11 10 9 9 7 7 13 17 18 16 22 28 26 21 18 18 15 11 11 5 5 8 7 7 8 9 8 10 11 10 12 13 13 13 13 15
19 20 18 16 13 13 11 8 6 6 5 5 5 6 10 15 18 23 25 28 25 23 18 18 18 13 13 13 9 10 11 12 13 14 15 15 14 16 14 14 16 18 20
22 19 18 15 10 8 5 6 7 5 2 3 6 8 10 13 16 23 22 27 27 26 23 21 19 19 17 17 17 17 16 16 18 18 20 20 20 21 22 23 24 27 29
23 20 21 15 12 8 4 4 2 4 2 4 6 8 11 15 15 17 19 19 21 23 23 23 24 22 22 24 23 23 22 23 26 27 28 28 28 27 27 28 30 31 33
26 23 23 16 14 10 7 6 4 6 8 8 4 2 10 13 13 12 11 12 13 15 17 19 21 23 25 26 27 29 30 30 31 31 31 31 32 34 38 40 40 37 37
27 24 24 20 14 12 10 8 6 4 3 4 5 1 8 12 15 14 14 13 14 15 17 18 18 21 25 28 29 30 30 30 31 32 32 32 33 34 35 35 35 36 38
28 27 24 24 21 16 12 9 10 7 7 4 2 3 1 7 12 15 17 17 15 15 18 18 17 17 18 20 22 24 25 26 26 27 29 30 31 32 31 32 33 35 36

GFSGL_250_spd_063.txt.gz
Wind_Speed
107 99 92 88 84 81 73 67 67 64 59 58 58 55 54 58 57 56 49 48 52 52 53 54 50 44 26 17 15 19 18 18 20 16 15 10 28 33 30 28 25 21 17
99 95 91 85 80 73 69 68 64 60 58 55 53 54 56 57 56 50 46 49 48 51 53 51 43 32 23 20 18 20 17 17 18 15 12 8 26 33 32 28 28 22 21
92 87 82 80 76 73 70 67 63 59 55 55 54 54 55 53 48 44 47 46 47 50 50 43 38 25 21 23 23 21 19 23 21 16 12 8 18 31 33 32 29 20 21
80 77 73 70 69 67 66 62 57 55 55 54 52 50 50 48 44 42 43 43 46 48 44 39 34 23 22 23 23 18 19 22 23 17 15 11 15 20 31 30 23 19 20
66 63 59 55 56 56 56 54 49 51 52 49 47 47 45 38 39 42 41 43 45 44 39 40 27 18 18 19 21 22 22 22 21 16 18 18 16 21 27 29 25 22 18
47 45 44 45 44 46 45 42 44 46 44 43 45 42 40 39 39 38 41 41 42 38 37 32 21 15 16 18 22 24 26 26 22 21 14 18 19 22 26 28 25 26 20
38 33 31 33 34 32 31 32 35 35 37 39 37 38 38 38 39 40 38 38 35 34 34 24 17 16 18 21 23 25 28 28 22 18 18 17 20 20 25 27 29 22 21
30 29 25 19 20 22 20 23 27 30 30 32 37 38 38 38 36 35 34 33 32 31 28 17 16 18 19 24 28 31 30 26 18 19 22 23 21 22 26 24 24 26 27
33 27 20 14 12 19 17 21 24 28 32 35 35 33 33 30 31 34 33 32 29 27 18 15 16 18 24 28 31 34 29 23 21 22 25 26 26 24 23 25 26 25 27
30 23 20 15 12 12 18 22 25 25 25 28 28 27 26 29 31 31 29 26 23 22 15 13 15 21 27 30 29 27 22 19 18 23 25 28 27 28 30 29 28 29 27
27 18 19 20 14 19 19 20 23 22 25 25 22 23 26 28 27 27 24 22 21 15 12 11 16 23 28 23 22 19 18 19 22 25 28 29 32 33 32 30 31 28 29
39 34 28 27 20 20 19 17 19 22 22 19 20 24 25 25 27 25 21 19 15 13 9 12 18 26 24 17 14 14 14 15 18 21 25 25 26 28 29 30 30 32 31
44 38 37 24 20 16 13 16 19 21 18 18 20 21 21 22 23 18 17 15 15 10 6 11 18 24 17 11 9 8 8 10 12 14 18 23 23 23 24 30 30 29 28
40 35 23 25 23 18 17 19 21 18 18 19 18 18 20 18 15 16 15 19 14 8 5 11 17 17 11 12 8 2 3 7 9 15 19 21 21 22 23 27 30 31 31
40 28 24 22 26 19 19 20 18 18 18 16 15 17 18 16 15 16 14 18 14 7 4 8 12 13 10 11 8 7 10 15 19 21 21 20 19 19 20 23 27 27 25
32 22 23 25 18 19 20 19 18 17 17 14 15 16 18 14 12 13 22 18 14 10 5 3 8 13 16 15 12 10 14 21 23 24 21 20 19 19 20 22 22 22 21
27 24 24 18 17 19 18 16 17 19 20 17 18 17 16 13 11 12 24 20 18 13 9 4 8 11 16 19 19 16 15 19 19 19 16 15 14 17 19 21 21 20 18
14 16 20 18 17 16 13 15 16 18 19 21 19 16 14 15 13 15 27 24 21 15 12 9 5 6 9 13 17 18 17 12 13 16 18 19 21 20 19 17 16 15 14
12 16 15 15 15 13 9 10 12 15 19 19 14 12 15 16 16 15 27 26 24 20 16 11 7 6 4 5 7 10 12 13 14 12 14 15 14 14 13 11 10 9 9
14 14 14 14 12 7 6 8 11 13 15 13 11 11 14 17 17 18 25 29 26 22 18 13 13 7 6 5 3 5 5 7 9 9 8 8 8 7 8 9 10 10 11
8 15 17 14 9 7 7 10 10 12 11 10 11 12 13 18 20 20 26 31 29 26 21 19 17 12 11 8 5 6 5 7 8 8 9 10 11 11 12 13 15 16 17
11 16 18 15 9 5 5 5 7 9 10 12 12 12 11 14 18 22 25 29 30 26 23 20 19 17 15 13 11 11 11 12 11 11 11 16 19 19 19 20 20 21 23
13 17 19 14 8 7 3 1 3 2 2 1 2 7 11 14 17 19 23 26 30 30 27 24 21 19 19 18 18 19 19 19 20 20 21 21 23 24 25 26 29 30 31
16 19 17 13 8 8 6 3 0 3 3 5 4 5 5 11 13 14 21 21 22 27 29 29 27 26 25 25 26 26 27 27 26 27 27 28 30 32 33 36 37 38 39
16 20 17 14 10 8 8 5 4 4 6 7 7 6 2 9 13 16 18 19 19 19 21 24 25 24 24 26 28 30 31 33 33 33 35 36 36 35 34 35 37 38 38
15 21 19 13 13 12 10 9 8 5 3 4 3 6 7 4 2 7 10 11 10 10 10 11 13 15 18 19 19 20 22 23 25 28 29 30 30 31 31 33 34 36 37

GFSGL_250_spd_069.txt.gz
Wind_Speed
128 122 120 118 118 114 103 104 101 106 106 105 102 103 98 93 98 90 88 73 61 57 54 54 54 52 50 50 50 51 46 36 25 27 26 23 21 21 19 21 31 30 22
123 117 114 114 119 116 114 113 114 111 111 112 111 108 107 103 101 79 72 61 58 54 53 53 53 48 49 47 48 49 43 32 25 21 23 22 24 21 14 23 29 27 26
123 118 112 108 109 110 110 104 101 96 94 91 87 87 85 83 74 69 61 56 55 53 52 52 50 46 45 46 46 45 41 30 25 19 23 24 24 19 11 21 25 26 24
115 113 112 108 105 104 101 98 95 90 87 83 80 80 77 70 66 63 56 54 53 52 50 50 45 42 45 45 43 44 36 27 22 20 24 25 22 18 14 21 26 25 25
117 116 114 105 100 99 96 94 91 87 83 79 75 77 70 66 62 57 53 51 50 48 46 43 41 44 42 42 44 41 30 25 21 24 25 23 22 20 16 17 29 28 26
87 92 96 101 102 102 99 95 91 86 80 74 75 70 62 58 55 50 50 47 46 44 39 39 41 41 41 42 44 38 28 25 25 25 26 27 23 24 19 19 25 30 27
77 78 74 73 74 74 74 76 70 67 64 63 58 53 52 48 46 46 44 42 38 35 36 38 39 39 42 44 41 29 25 25 27 29 31 32 27 26 22 23 26 27 28
71 73 64 54 51 44 45 46 48 50 50 47 44 44 42 42 40 39 37 33 33 35 36 36 36 39 42 39 31 24 24 27 30 33 35 34 29 25 23 25 23 29 32
69 63 57 48 32 32 40 41 40 40 36 35 36 35 33 32 32 31 28 29 32 34 33 32 36 40 35 31 24 23 26 31 35 38 36 30 25 20 24 26 25 27 33
50 47 41 41 36 37 40 36 35 33 30 26 26 25 23 26 26 25 27 30 31 28 30 34 37 35 31 23 23 27 31 36 39 36 31 26 21 23 24 24 26 27 32
41 46 43 40 39 37 38 36 34 30 26 20 20 21 23 22 23 28 31 27 26 28 31 34 34 30 20 20 25 31 35 36 33 29 22 20 19 25 25 27 25 27 30
58 53 52 52 50 47 41 35 29 22 20 17 20 23 24 25 28 26 25 23 26 29 32 29 24 16 17 22 29 33 33 29 28 24 20 21 22 24 27 29 28 30 33
66 63 63 56 47 41 33 30 27 21 16 21 27 27 26 24 23 22 22 24 28 28 23 18 14 13 18 24 28 26 23 21 20 18 20 21 25 24 24 27 28 28 32
73 69 62 54 47 40 35 32 32 31 27 21 22 22 21 21 21 20 23 25 23 18 16 13 10 14 17 18 19 18 16 14 12 14 21 25 20 22 21 24 30 30 31
73 65 58 50 44 37 30 25 25 23 21 19 20 21 21 19 18 21 22 20 16 15 14 9 7 10 11 12 11 10 10 7 6 8 13 20 24 25 25 27 29 32 33
66 55 46 39 36 30 22 16 18 18 18 17 18 19 20 17 15 18 18 17 15 14 15 9 3 5 8 5 6 7 8 10 10 8 8 12 13 13 14 16 20 25 31
51 49 39 34 25 21 14 8 14 15 15 16 18 20 20 15 15 17 17 16 15 20 17 11 7 4 11 13 15 15 16 16 15 15 14 12 9 6 5 8 9 14 24
53 47 37 20 20 13 8 11 12 12 15 15 17 17 16 19 20 20 17 16 16 23 18 14 10 5 6 11 15 18 19 21 20 18 17 14 10 9 8 7 7 9 12
46 42 32 27 21 13 11 11 11 13 14 14 13 14 16 18 20 17 15 14 24 23 20 15 12 9 4 6 10 13 15 17 20 21 21 19 16 13 12 11 9 9 10
35 32 28 23 16 14 11 12 13 13 12 12 11 10 12 13 13 14 14 16 26 24 20 17 15 11 7 3 1 6 8 9 10 12 13 13 13 13 13 13 11 11 13
30 30 23 21 16 13 13 12 11 9 10 9 8 9 8 9 12 14 16 21 27 26 24 21 15 15 12 8 4 2 2 2 3 3 2 2 2 2 3 3 3 4 4
27 25 23 19 16 16 14 11 9 8 6 6 9 10 9 10 12 17 19 22 30 29 27 23 20 18 15 11 11 9 7 6 6 7 6 7 7 9 10 11 11 13 15
29 22 19 19 19 17 11 8 5 3 2 3 4 8 9 10 13 19 21 23 28 32 29 26 24 22 18 16 13 12 10 11 11 11 12 13 14 14 15 18 20 22 23
23 23 22 20 17 15 12 9 6 4 3 2 1 2 6 9 10 15 19 22 22 27 31 27 26 24 22 21 19 17 16 16 16 16 18 20 20 22 24 25 27 28 28
16 18 22 21 19 19 13 10 7 4 4 4 6 5 8 9 7 4 8 13 17 20 21 27 28 24 23 23 21 20 20 21 23 26 29 30 30 31 33 33 34 35 36
21 19 22 21 17 15 12 10 8 4 4 4 8 10 11 10 10 11 10 9 9 10 12 15 20 23 24 25 26 25 26 26 25 24 21 20 21 23 25 28 30 32 34

GFSGL_250_spd_075.txt.gz
Wind_Speed
119 122 124 121 117 116 112 114 112 112 102 99 94 92 88 83 72 66 59 57 68 73 74 71 70 70 76 65 63 63 60 58 55 51 47 47 45 44 43 32 32 32 22
117 110 106 107 114 108 103 101 98 93 94 97 93 84 80 73 62 62 72 75 72 72 71 69 69 73 71 62 61 60 59 56 53 48 45 46 42 44 38 29 30 30 17
131 125 119 113 104 99 94 95 98 95 93 91 91 85 85 75 81 86 76 80 72 72 70 70 70 68 64 60 56 60 59 54 50 44 45 40 40 43 32 27 27 27 16
136 133 129 129 120 111 101 93 85 90 93 90 84 87 88 98 95 86 78 74 76 76 72 70 70 65 59 54 55 59 55 51 45 41 40 37 38 40 29 25 26 23 18
132 134 133 129 128 128 125 113 96 94 100 107 112 114 110 96 81 76 74 76 80 74 72 69 66 55 54 56 55 57 51 45 41 38 39 38 38 37 28 24 25 24 19
108 118 125 127 127 126 125 123 127 123 121 118 112 104 95 89 82 75 73 76 75 73 69 63 54 56 56 55 52 49 46 40 39 38 36 36 37 28 26 25 26 27 24
89 91 95 105 114 118 117 116 111 109 108 105 101 95 89 83 77 78 75 73 70 65 61 61 59 55 55 52 47 45 38 41 42 36 36 37 30 26 29 27 29 31 29
78 81 82 82 83 88 95 102 103 101 97 94 92 88 84 82 80 76 73 70 69 67 65 60 52 54 48 45 43 37 38 42 39 38 39 36 29 28 31 32 32 33 29
54 58 63 66 71 74 72 71 84 91 90 89 86 84 83 79 81 79 76 72 70 66 58 49 49 44 44 40 34 38 40 39 39 41 39 35 33 35 36 38 40 38 30
34 38 43 47 52 58 61 59 57 61 66 71 74 75 74 74 74 70 69 66 60 53 46 43 39 37 33 31 34 36 37 39 39 39 36 33 37 40 42 42 35 29 26
19 23 28 35 41 48 51 53 48 42 43 44 48 54 60 66 67 63 58 51 45 39 34 31 30 29 29 32 34 35 37 37 38 34 35 39 41 42 39 31 23 17 20
16 16 16 17 23 34 45 47 41 39 37 39 42 49 56 58 51 45 37 34 32 27 25 26 28 29 31 31 33 35 33 33 33 37 40 42 40 38 32 25 21 23 30
51 45 43 41 38 37 37 42 37 32 35 42 47 49 44 35 31 31 29 28 24 23 25 25 26 26 28 30 29 30 29 33 38 40 41 41 36 28 17 15 24 29 29
62 56 45 36 31 33 34 35 37 41 39 36 35 34 34 33 31 29 26 24 22 23 24 24 23 25 25 24 24 25 31 36 37 38 39 37 28 25 29 23 29 27 27
70 64 53 26 23 20 17 25 31 39 44 43 40 38 36 33 31 29 26 22 22 23 21 20 21 21 20 18 20 26 31 32 32 32 30 24 18 26 31 32 31 24 28
75 70 57 50 47 37 32 39 44 43 42 37 33 31 31 30 26 24 21 23 22 19 18 19 19 17 14 13 18 22 23 21 21 20 16 11 13 22 25 23 21 24 25
75 80 79 68 57 50 50 47 44 40 37 31 27 24 25 22 19 23 24 20 17 16 18 17 16 14 10 9 11 12 11 9 9 10 9 3 2 6 9 14 18 22 23
60 56 57 62 65 62 52 46 44 39 37 33 30 29 23 20 22 22 20 18 16 16 16 16 15 16 8 2 2 5 7 9 12 14 16 16 14 10 4 3 6 9 14
60 64 65 58 53 47 41 36 33 34 30 26 26 22 23 22 22 21 20 20 18 19 17 17 21 18 10 6 5 3 7 11 14 17 19 21 22 21 18 15 11 9 7
62 56 49 44 41 35 32 30 29 29 28 26 23 22 21 20 19 20 23 24 22 21 20 19 24 21 14 10 6 3 2 6 9 10 12 14 16 16 16 16 16 16 15
58 49 45 38 35 28 29 25 26 25 25 23 20 19 20 21 23 23 22 22 22 22 21 23 25 22 18 13 9 6 3 1 3 5 6 9 10 11 11 11 11 11 10
47 49 39 34 27 19 15 18 19 19 18 17 18 20 21 22 20 19 20 21 22 21 20 29 26 22 20 17 11 9 8 5 4 5 4 5 4 6 7 6 8 9 9
41 39 34 28 24 15 13 13 14 14 13 14 16 16 14 12 14 17 19 19 19 20 23 29 25 21 19 18 15 15 11 11 10 9 10 11 12 13 13 14 16 17 17
31 29 25 23 20 17 16 16 15 13 13 12 11 12 12 12 13 13 15 15 16 18 25 26 25 23 21 18 17 16 15 15 14 14 15 16 16 17 19 23 22 21 20
21 16 16 15 18 18 17 16 14 11 10 9 7 9 10 11 11 13 13 15 17 18 25 26 25 25 22 21 20 18 17 18 18 20 20 18 20 20 13 8 8 10 12
21 14 13 15 17 16 15 13 12 11 10 12 13 12 9 7 7 10 13 14 16 18 20 24 28 28 27 26 24 24 23 23 23 22 22 19 12 9 10 12 14 15 15